Weather History for KDTW - July, 2013

Change the Weather History Date:

Wednesday, July 31, 2013

  Actual Average Record
Temperature  
Mean Temperature 72 °F 73 °F  
Max Temperature 77 °F 83 °F 96 °F (2006)
Min Temperature 67 °F 64 °F 48 °F (1918)
Degree Days  
Heating Degree Days 0 0  
Month to date heating degree days 4 0  
Since 1 June heating degree days 27 37  
Since 1 July heating degree days 4 2  
Cooling Degree Days 7 8  
Month to date cooling degree days 293 271  
Year to date cooling degree days 566 486  
Since 1 June cooling degree days 463 438  
Growing Degree Days 22 (Base 50)    
Moisture  
Dew Point 65 °F    
Average Humidity 74    
Maximum Humidity 84    
Minimum Humidity 64    
Precipitation  
Precipitation 0.10 in 0.12 in 4.74 in (1925)
Month to date precipitation 4.14 3.37  
Year to date precipitation 25.00 19.43  
Snow  
Snow 0.00 in 0.00 in 0.00 in ()
Month to date snowfall 0.0 0.0  
Since 1 June snowfall 0.0 0.0  
Since 1 July snowfall 0.0 0.0  
Snow Depth 0.00 in    
Sea Level Pressure  
Sea Level Pressure 30.00 in    
Wind  
Wind Speed 5 mph (South)    
Max Wind Speed 17 mph    
Max Gust Speed 22 mph    
Visibility 8 miles    
Events Rain    
T = Trace of Precipitation, MM = Missing Value Source: NWS Daily Summary

Daily Weather History Graph

Daily Weather History Graph

Search for Another Location

Airport or City:

Trip Planner

Search our weather history database for the weather conditions in past years. The results will help you decide how hot, cold, wet, or windy it might be!

Date:

Astronomy

Jul. 31, 2013 Rise Set
Actual Time 6:25 AM EDT 8:53 PM EDT
Civil Twilight 5:53 AM EDT 9:24 PM EDT
Nautical Twilight 5:14 AM EDT 10:04 PM EDT
Astronomical Twilight 4:29 AM EDT 10:48 PM EDT
Moon 1:20 AM EDT (7/31) 4:08 PM EDT (7/31)
Length of Visible Light 15h 31m
Length of Day
14h 27m
Waning Crescent, 32% of the Moon is Illuminated
Jul 31
Waning Crescent
Aug 6
New
Aug 14
First Quarter
Aug 20
Full
Aug 28
Last Quarter

Hourly Weather History & Observations

Time (EDT) Temp. Dew Point Humidity Pressure Visibility Wind Dir Wind Speed Gust Speed Precip Events Conditions
12:53 AM 68.0 °F 60.1 °F 76% 30.14 in 8.0 mi Calm Calm - N/A   Overcast
1:53 AM 68.0 °F 61.0 °F 78% 30.13 in 9.0 mi Calm Calm - N/A   Overcast
3:53 AM 68.0 °F 62.1 °F 81% 30.11 in 8.0 mi Calm Calm - 0.00 in Rain Light Rain
4:53 AM 68.0 °F 63.0 °F 84% 30.10 in 10.0 mi Calm Calm - 0.00 in   Overcast
5:53 AM 68.0 °F 63.0 °F 84% 30.09 in 9.0 mi Calm Calm - N/A   Overcast
6:53 AM 69.1 °F 64.0 °F 84% 30.09 in 10.0 mi Calm Calm - N/A   Overcast
7:53 AM 70.0 °F 64.0 °F 81% 30.10 in 10.0 mi SSE 4.6 mph - N/A   Overcast
8:53 AM 71.1 °F 64.0 °F 78% 30.09 in 10.0 mi SSE 4.6 mph - N/A   Overcast
9:53 AM 72.0 °F 62.1 °F 71% 30.08 in 10.0 mi South 6.9 mph - N/A   Overcast
10:53 AM 73.0 °F 62.1 °F 68% 30.08 in 10.0 mi South 8.1 mph - N/A   Overcast
11:53 AM 73.0 °F 63.0 °F 71% 30.06 in 10.0 mi SE 3.5 mph - N/A   Mostly Cloudy
12:53 PM 75.0 °F 63.0 °F 66% 30.04 in 10.0 mi ESE 3.5 mph - 0.00 in   Mostly Cloudy
1:53 PM 75.9 °F 63.0 °F 64% 30.02 in 10.0 mi East 3.5 mph - 0.00 in Rain Light Rain
2:53 PM 75.9 °F 64.0 °F 67% 30.00 in 10.0 mi ESE 5.8 mph - N/A   Overcast
3:53 PM 73.9 °F 64.0 °F 71% 29.99 in 10.0 mi SE 5.8 mph - N/A   Overcast
4:53 PM 73.0 °F 64.9 °F 76% 29.96 in 10.0 mi ESE 4.6 mph - 0.01 in   Overcast
5:53 PM 73.0 °F 64.9 °F 76% 29.95 in 10.0 mi SE 6.9 mph - 0.00 in   Overcast
6:53 PM 73.0 °F 66.0 °F 79% 29.93 in 10.0 mi SE 5.8 mph - 0.00 in   Overcast
6:56 PM 73.4 °F 66.2 °F 78% 29.94 in 10.0 mi SE 6.9 mph - N/A   Overcast
7:53 PM 71.1 °F 68.0 °F 90% 29.92 in 3.0 mi SSW 4.6 mph - 0.02 in Rain Light Rain
8:07 PM 71.6 °F 68.0 °F 88% 29.93 in 3.0 mi SSW 5.8 mph - 0.00 in Rain Light Rain
8:38 PM 71.6 °F 66.2 °F 83% 29.93 in 7.0 mi South 16.1 mph - 0.00 in Rain Light Rain
8:44 PM 69.8 °F 66.2 °F 88% 29.93 in 2.5 mi South 13.8 mph - 0.00 in Rain Light Rain
8:53 PM 70.0 °F 66.9 °F 90% 29.92 in 2.5 mi South 13.8 mph - 0.01 in Rain Light Rain
9:35 PM 69.8 °F 66.2 °F 88% 29.92 in 2.5 mi SSW 8.1 mph - 0.00 in   Overcast
9:53 PM 70.0 °F 66.9 °F 90% 29.91 in 2.5 mi SSW 12.7 mph - 0.00 in   Overcast
10:26 PM 69.8 °F 66.2 °F 88% 29.92 in 2.5 mi SSW 12.7 mph - 0.00 in Rain Light Rain
10:53 PM 69.1 °F 66.9 °F 93% 29.91 in 2.5 mi WSW 9.2 mph - 0.06 in Rain Light Rain
11:24 PM 69.8 °F 66.2 °F 88% 29.90 in 2.5 mi WSW 8.1 mph - 0.00 in   Overcast
11:51 PM 69.8 °F 66.2 °F 88% 29.90 in 10.0 mi WSW 6.9 mph - 0.00 in   Overcast
11:53 PM 69.1 °F 66.0 °F 90% 29.89 in 10.0 mi West 8.1 mph - 0.00 in   Overcast